Torna al catalogo

CZ-6A DEB

AttivoSSO
NORAD 54280·DEBRIS·🇨🇳 China

Lanciato Nov 11, 2022 da Taiyuan Satellite Launch Center

Loading…

Prossimi Passaggi (prossime 24 ore)

TLE

AggiornatoSource: Space-Track

Epoca: Sep 14, 2026, 01:18 UTC

1 54280U 22151X   26257.05457977  .00001129  00000-0  36602-3 0  9999
2 54280  98.6026 282.1238 0081741 124.7819 236.1096 14.38988070200446

Traccia CZ-6A DEB in tempo reale con AllMySat

Download on the App Store